{"data":{"norad_id":64497,"epoch":"2026-05-25T02:37:28.435296Z","epoch_age_seconds":68816,"freshness":"FRESH","line1":"1 64497U 25133AB  26145.10935689 -.00090958  00000+0 -27026-2 0  9994","line2":"2 64497  53.1597 119.3371 0002052 130.0375 230.0808 15.34523443 52928","mean_motion":15.34523443,"eccentricity":0.0002052,"inclination_deg":53.1597,"raan_deg":119.3371,"arg_perigee_deg":130.0375,"mean_anomaly_deg":230.0808,"bstar":-0.0027026,"rev_number":5292,"period_min":93.840208604751,"perigee_km":460.93270105777,"apogee_km":463.74003132725,"semimajor_km":6840.4733661925,"source":"CELESTRAK","updated_at":"2026-05-25T13:38:20.462637Z"}}